LiveATC.Net - Listen to live air traffic control over the Internet!


ICAO: CYQT  IATA: YQT   Airport: Thunder Bay Airport
City: Thunder Bay   State/Province: Ontario
Country: Canada   Continent: North America
CYQT METAR Weather: CYQT 180400Z 27005KT 15SM -RA BKN019 OVC038 01/01 A2974 RMK SC5SC3 SLP083
CYQT Flight Activity (FlightAware)
CYQT Webcam:  (Airport Webcams) 

CYQT Ground/Tower
Feed Status: UP   Listeners: 0
Listen in your browser - HTML5 player (in browser, HTML5)
Click here to listen with your own player (launches your MP3 player)
Archive Access: CYQT Ground/Tower
FacilityFrequency
Thunder Bay Ground121.900
Thunder Bay Tower118.100

NOTICE

Unauthorized use prohibited. See LiveATC.net Terms of Service


Airport/ARTCC Code
Frequency Search
(e.g., 124.400, 128.75)
Site-wide search
 


Browse LiveATC Feeds
Top 50 LiveATC Feeds
LiveATC Feed Map
Bad Weather Areas

LiveATC FAQ
Offer LiveATC feed
Contact LiveATC.net
Press Inquiries

LiveATC on iPhone
LiveATC on Android

Windows Phone
Windows 8/10

LiveATC Mobile
(Mobile browser)

ATC Audio Archives
Interesting Recordings

LiveATC Forums


Home Page
About LiveATC.net
Make a Donation
Terms of Use
Privacy Policy

Canadian Air Freqs

AIRMETs/SIGMETs

FAA Airport Status
Nat'l Airspace Status
Arrival Demand Charts


Server Software By:
Icecast.org
Liquidsoap